DW0126 Weather Reports


Display with metric or nautical units.
time (UTC)temp
F
wind
direction
speed
MPH
gust
MPH
rain 1hr
in
rain 24hr
in
rain mn
in
humidity
%
barometer
mb
20260905215417 71 0.0 0.0 0.00 0.03 0.00 55 1015.9
20260905214417 71 23 1.0 2.0 0.00 0.04 0.00 56 1015.9
20260905213417 70 45 1.0 3.0 0.00 0.04 0.00 58 1016.0
20260905212417 70 45 2.0 4.0 0.00 0.04 0.00 56 1016.1
20260905211417 69 0.0 1.0 0.00 0.04 0.00 59 1016.2
20260905210417 68 0.0 2.0 0.00 0.04 0.00 60 1016.2
20260905205417 68 0.0 1.0 0.00 0.04 0.00 60 1016.4
20260905204417 66 338 1.0 2.0 0.00 0.04 0.00 63 1016.4
20260905203417 67 225 2.0 4.0 0.00 0.04 0.00 62 1016.6
20260905202417 66 68 2.0 3.0 0.00 0.04 0.00 66 1016.6
20260905201417 65 0.0 2.0 0.00 0.04 0.00 65 1016.7
20260905200417 68 158 2.0 4.0 0.00 0.04 0.00 65 1016.7
20260905195417 67 203 1.0 3.0 0.00 0.04 0.00 67 1016.9
20260905194417 66 203 2.0 3.0 0.00 0.04 0.00 69 1017.0
20260905193417 65 68 1.0 3.0 0.00 0.04 0.00 72 1017.0
20260905192417 65 270 2.0 4.0 0.00 0.04 0.00 76 1017.1
20260905191417 64 0.0 1.0 0.00 0.04 0.00 76 1017.2
20260905190417 64 68 1.0 3.0 0.00 0.04 0.00 79 1017.3
20260905185437 62 45 1.0 3.0 0.00 0.04 0.00 80 1017.2
20260905184437 62 0 2.0 4.0 0.00 0.04 0.00 83 1017.2
20260905183417 61 0.0 0.0 0.00 0.04 0.00 86 1017.3
20260905182417 60 68 1.0 2.0 0.00 0.04 0.00 88 1017.4
20260905181418 60 0 3.0 5.0 0.00 0.04 0.00 90 1017.6
20260905180417 59 23 3.0 4.0 0.00 0.04 0.00 92 1017.6
20260905175457 57 45 1.0 1.0 0.00 0.04 0.00 93 1017.4
20260905174417 57 90 2.0 3.0 0.00 0.04 0.00 93 1017.4
20260905173517 56 45 1.0 2.0 0.00 0.04 0.00 93 1017.4
20260905172417 56 68 2.0 4.0 0.00 0.04 0.00 93 1017.4
20260905171417 55 90 1.0 4.0 0.00 0.04 0.00 93 1017.5
20260905170417 55 23 1.0 2.0 0.00 0.04 0.00 94 1017.5
20260905165416 54 23 1.0 2.0 0.00 0.04 0.00 94 1017.3
20260905164417 53 0.0 1.0 0.00 0.04 0.00 94 1017.4
20260905163417 52 45 1.0 1.0 0.00 0.04 0.00 94 1017.4
20260905162417 52 23 1.0 2.0 0.00 0.04 0.00 95 1017.4
20260905161417 51 45 2.0 2.0 0.00 0.04 0.00 95 1017.2
20260905160416 51 23 1.0 2.0 0.00 0.04 0.00 95 1017.0
20260905155437 51 23 1.0 2.0 0.00 0.04 0.00 95 1017.0
20260905154417 51 0.0 0.0 0.00 0.04 0.00 95 1016.9
20260905153557 51 0.0 0.0 0.00 0.04 0.00 95 1017.0
20260905152417 50 0.0 0.0 0.00 0.04 0.00 95 1017.0
20260905151417 50 0.0 0.0 0.00 0.04 0.00 95 1017.1
20260905150417 50 0.0 0.0 0.00 0.04 0.00 95 1017.0
20260905145437 49 0.0 0.0 0.00 0.04 0.00 95 1016.9
20260905144437 49 0.0 0.0 0.00 0.04 0.00 95 1016.9
20260905143457 49 0.0 0.0 0.00 0.04 0.00 95 1016.9
20260905142417 49 0.0 0.0 0.00 0.04 0.00 95 1016.9
20260905141417 49 0.0 0.0 0.00 0.04 0.00 95 1016.8
20260905140417 49 45 1.0 2.0 0.00 0.04 0.00 95 1016.9
20260905135417 49 0.0 0.0 0.00 0.04 0.00 95 1016.7
20260905134417 49 0.0 1.0 0.00 0.04 0.00 95 1016.7
20260905133417 49 23 2.0 2.0 0.00 0.04 0.00 95 1016.7
20260905132417 49 0.0 0.0 0.00 0.04 0.00 95 1016.6
20260905131416 48 0.0 0.0 0.00 0.04 0.00 95 1016.5
20260905130417 48 0.0 0.0 0.00 0.04 0.00 95 1016.6
20260905125417 49 0.0 0.0 0.00 0.04 0.00 95 1016.4
20260905124437 48 0.0 0.0 0.00 0.04 0.00 95 1016.7
20260905123417 48 0.0 1.0 0.00 0.04 0.00 95 1016.6
20260905122437 49 0.0 1.0 0.00 0.04 0.00 95 1016.7
20260905121417 48 0.0 0.0 0.00 0.04 0.00 95 1016.6
20260905120417 48 0.0 0.0 0.00 0.04 0.00 99 1016.7
20260905115457 49 45 1.0 2.0 0.00 0.04 0.00 95 1016.5
20260905114437 48 23 1.0 2.0 0.00 0.04 0.00 95 1016.5
20260905113417 48 0.0 0.0 0.00 0.04 0.00 95 1016.4
20260905112417 49 0.0 0.0 0.00 0.04 0.00 95 1016.5
20260905111416 48 0.0 1.0 0.00 0.04 0.00 95 1016.4
20260905110417 48 68 1.0 1.0 0.00 0.04 0.00 95 1016.3
20260905105457 49 0.0 1.0 0.00 0.04 0.00 95 1016.4
20260905104417 48 0.0 1.0 0.00 0.04 0.00 95 1016.2
20260905103417 48 293 1.0 2.0 0.00 0.04 0.00 95 1016.1
20260905102417 48 0.0 0.0 0.00 0.04 0.00 95 1016.1
20260905101417 49 293 1.0 1.0 0.00 0.04 0.00 95 1016.1
20260905100437 49 0.0 0.0 0.00 0.04 0.00 95 1016.1
20260905095416 50 293 1.0 1.0 0.00 0.04 0.00 95 1016.0
20260905094416 50 0.0 0.0 0.00 0.04 0.00 95 1015.9
20260905093416 50 0.0 1.0 0.00 0.04 0.00 95 1016.0
20260905092416 51 0.0 0.0 0.00 0.04 0.00 95 1016.1
20260905091417 50 0.0 0.0 0.00 0.04 0.00 95 1015.9
20260905090417 50 0.0 0.0 0.00 0.04 0.00 95 1015.9
20260905085417 50 0.0 0.0 0.00 0.04 0.00 94 1015.9
20260905084417 51 0.0 0.0 0.00 0.04 0.00 95 1016.0
20260905083417 51 0.0 0.0 0.00 0.04 0.00 95 1015.9
20260905082416 51 0.0 0.0 0.00 0.04 0.00 94 1015.9
20260905081416 51 0.0 0.0 0.00 0.04 0.00 94 1015.7
20260905080416 51 0.0 0.0 0.00 0.04 0.00 94 1015.7
20260905075416 51 0.0 0.0 0.00 0.04 0.00 94 1015.7
20260905074417 51 0.0 0.0 0.00 0.04 0.00 94 1015.5
20260905073417 53 0.0 0.0 0.00 0.04 0.00 94 1015.6
20260905072416 52 0.0 0.0 0.00 0.04 0.00 94 1015.6
20260905071416 52 0.0 0.0 0.00 0.04 0.00 94 1015.4
20260905070416 53 0.0 1.0 0.00 0.04 0.00 94 1015.4
20260905065415 52 0.0 0.0 0.00 0.04 0.04 93 1015.2
20260905064415 53 0.0 0.0 0.00 0.04 0.04 94 1015.2
20260905063415 53 0.0 0.0 0.00 0.04 0.04 93 1015.1
20260905062416 54 0.0 0.0 0.00 0.04 0.04 93 1015.1
20260905061415 54 0.0 0.0 0.00 0.04 0.04 93 1015.0
20260905060415 54 0.0 0.0 0.00 0.04 0.04 93 1014.9
20260905055436 54 0.0 0.0 0.01 0.04 0.04 93 1014.9
20260905054415 54 0.0 0.0 0.01 0.04 0.04 93 1014.8
20260905053415 54 0.0 0.0 0.01 0.04 0.04 93 1014.8
20260905052415 54 0.0 1.0 0.01 0.04 0.04 93 1014.8
20260905051415 54 0 1.0 1.0 0.01 0.04 0.04 92 1014.7
20260905050416 55 0.0 0.0 0.01 0.04 0.04 92 1014.7
20260905045415 55 0.0 0.0 0.00 0.03 0.03 92 1014.7
20260905044435 55 0.0 0.0 0.00 0.03 0.03 92 1014.6
20260905043416 56 0.0 0.0 0.00 0.03 0.03 92 1014.6
20260905042415 56 0.0 0.0 0.00 0.03 0.03 91 1014.6
20260905041415 56 0.0 0.0 0.00 0.03 0.03 91 1014.6
20260905040415 57 0.0 0.0 0.00 0.03 0.03 90 1014.6
20260905035415 57 0.0 0.0 0.00 0.03 0.03 90 1014.6
20260905034415 58 0.0 0.0 0.00 0.03 0.03 90 1014.5
20260905033416 58 0.0 0.0 0.01 0.03 0.03 89 1014.6
20260905032415 59 0.0 1.0 0.02 0.03 0.03 88 1014.5
20260905031415 59 225 1.0 2.0 0.02 0.03 0.03 89 1014.3
20260905030416 59 0.0 1.0 0.02 0.03 0.03 88 1014.1
20260905025415 60 68 1.0 2.0 0.02 0.03 0.03 84 1014.1
20260905024415 62 0.0 0.0 0.02 0.03 0.03 82 1014.0
20260905023415 63 338 1.0 2.0 0.01 0.02 0.02 79 1014.2
20260905022435 63 23 1.0 2.0 0.00 0.01 0.01 74 1014.2
20260905021415 63 180 2.0 6.0 0.00 0.01 0.01 72 1014.2
20260905020415 64 113 3.0 6.0 0.00 0.01 0.01 68 1014.3
20260905015415 65 45 1.0 2.0 0.00 0.01 0.01 68 1013.8
20260905014415 66 68 5.0 8.0 0.00 0.01 0.01 65 1013.6
20260905013435 68 68 9.0 17.0 0.00 0.01 0.01 63 1013.4
20260905012415 68 0.0 1.0 0.00 0.01 0.01 65 1013.2
20260905011415 68 45 1.0 2.0 0.00 0.01 0.01 62 1013.1
20260905010415 69 0.0 1.0 0.00 0.01 0.01 60 1013.0
20260905005415 69 0.0 0.0 0.00 0.01 0.01 58 1012.9
20260905004415 69 68 1.0 2.0 0.00 0.01 0.01 55 1012.9
20260905003415 70 68 4.0 6.0 0.00 0.01 0.01 52 1012.9
20260905002415 71 45 3.0 5.0 0.00 0.01 0.01 50 1012.7
20260905001415 72 68 1.0 3.0 0.00 0.01 0.01 50 1012.7
20260905000417 72 0.0 0.0 0.00 0.01 0.01 50 1012.5
20260904235435 71 180 1.0 2.0 0.00 0.01 0.01 52 1012.6
20260904234415 71 68 2.0 6.0 0.00 0.01 0.01 54 1012.6
20260904233415 70 270 1.0 2.0 0.00 0.01 0.01 54 1012.6
20260904232455 70 0.0 1.0 0.00 0.01 0.01 56 1012.5
20260904231415 70 68 1.0 3.0 0.00 0.02 0.01 55 1012.6
20260904230416 70 68 2.0 4.0 0.00 0.02 0.01 56 1012.8
20260904225415 71 68 2.0 5.0 0.00 0.02 0.01 54 1012.9
20260904224415 72 23 2.0 6.0 0.01 0.02 0.01 51 1012.9
20260904223416 70 270 2.0 3.0 0.01 0.02 0.01 54 1012.8
20260904222415 70 293 2.0 4.0 0.01 0.03 0.01 55 1012.8
20260904221415 69 0 1.0 2.0 0.01 0.03 0.01 58 1012.7
20260904220415 67 23 2.0 4.0 0.01 0.03 0.01 60 1012.7